{"data":{"norad_id":55920,"intl_designator":"2023-037G","name":"STARLINK-5862","alt_names":[],"object_type":"PAYLOAD","status":"ACTIVE","operator":null,"country":"US","launch_date":"2023-03-17","launch_site_code":"AFWTR","launch_vehicle":null,"mission":null,"orbit_class":"UNKNOWN","rcs_meters":null,"size_class":null,"mass_kg":null,"dimensions":null,"purposes":["comms"],"wikipedia_slug":null,"has_3d_model":false,"image_url":null,"decayed_at":null,"tle_current":{"epoch":"2026-09-20T22:00:03.000096Z","epoch_age_seconds":67083,"freshness":"FRESH","line1":"1 55920U 23037G   26263.91670139  .00031520  00000+0  22892-2 0  9996","line2":"2 55920  70.0004 152.3395 0003188 274.8139 330.0144 15.03739213  5718","mean_motion":15.03739213,"eccentricity":0.0003188,"inclination_deg":70.0004,"raan_deg":152.3395,"arg_perigee_deg":274.8139,"mean_anomaly_deg":330.0144,"bstar":0.0022892,"rev_number":571,"period_min":95.76128543773,"perigee_km":553.16810452544,"apogee_km":557.58891401415,"semimajor_km":6933.5155092698,"source":"CELESTRAK","updated_at":"2026-09-21T09:00:33.323207Z"}}}